Location: Newark
(35.5300°N, 14.3000°E)
Time: 21:30:29
(UTC+00:00)

Vanguard 1 Rocket - Visible Passes

Search period start: 22 November 2019 00:00
Search period end: 02 December 2019 00:00
Orbit: 651 x 4226 km, 34.3° (Epoch: 22 November)

Date Brightness Start Highest point End Pass type
(mag) Time Alt. Az. Time Alt. Az. Time Alt. Az.
22 Nov 7.7 03:14:00 46° ESE 03:14:00 46° ESE 03:17:42 10° E visible
23 Nov 7.1 04:24:11 27° W 04:26:34 66° S 04:32:33 10° ESE visible
24 Nov 7.6 03:17:04 46° ESE 03:17:04 46° ESE 03:20:43 10° E visible
25 Nov 7.3 04:27:16 25° W 04:29:38 53° SSW 04:35:20 10° ESE visible
26 Nov 7.6 03:20:09 45° ESE 03:20:09 45° ESE 03:23:43 10° ESE visible
27 Nov 7.6 04:30:20 23° WSW 04:32:42 40° SSW 04:37:58 10° SE visible
28 Nov 7.7 03:23:15 41° SE 03:23:15 41° SE 03:26:39 10° ESE visible
29 Nov 8.1 04:33:27 19° WSW 04:35:44 29° SSW 04:40:24 10° SE visible
29 Nov 10.9 19:58:24 10° SSW 20:02:12 15° S 20:02:12 15° S visible
30 Nov 7.9 03:26:22 35° SSE 03:26:22 35° SSE 03:29:30 10° SE visible
30 Nov 10.8 18:47:53 10° S 18:55:07 15° SSE 18:55:07 15° SSE visible
30 Nov 11.2 21:11:48 10° SW 21:12:25 11° SW 21:12:25 11° SW visible
01 Dec 8.5 04:36:35 15° WSW 04:38:44 20° SSW 04:42:29 10° SSE visible
01 Dec 10.7 19:58:46 10° SSW 20:05:21 22° S 20:05:21 22° S visible
